Time,TemperatureF,DewpointF,PressureIn,WindDirection,WindDirectionDegrees,WindSpeedMPH,WindSpeedGustMPH,Humidity,HourlyPrecipIn,Conditions,Clouds,dailyrainin,SoftwareType,DateUTC
2014-12-20 00:00:00,39.1,34.7,30.23,NE,49,0.0,0.0,84,0.00,CLR,,0.00,WeatherDisplay:10.37,2014-12-20 06:00:00,
2014-12-20 00:05:00,39.0,34.6,30.23,NE,50,0.0,0.0,84,0.00,CLR,,0.00,WeatherDisplay:10.37,2014-12-20 06:05:00,
2014-12-20 00:10:00,38.8,34.4,30.23,NE,50,0.0,0.0,84,0.00,CLR,,0.00,WeatherDisplay:10.37,2014-12-20 06:10:00,
2014-12-20 00:15:00,38.7,34.3,30.23,NE,50,0.0,0.0,84,0.00,CLR,,0.00,WeatherDisplay:10.37,2014-12-20 06:15:00,
2014-12-20 00:20:00,38.5,34.1,30.22,NE,50,0.0,0.0,84,0.00,CLR,,0.00,WeatherDisplay:10.37,2014-12-20 06:20:00,
2014-12-20 00:25:00,38.3,33.9,30.22,NE,49,0.0,0.0,84,0.00,CLR,,0.00,WeatherDisplay:10.37,2014-12-20 06:25:00,
2014-12-20 00:30:00,38.1,33.7,30.22,NE,50,0.0,0.0,84,0.00,CLR,,0.00,WeatherDisplay:10.37,2014-12-20 06:30:00,
2014-12-20 00:35:00,37.9,33.5,30.22,NE,50,0.0,0.0,84,0.00,CLR,,0.00,WeatherDisplay:10.37,2014-12-20 06:35:00,
2014-12-20 00:40:00,37.7,33.6,30.22,NE,49,0.0,0.0,85,0.00,CLR,,0.00,WeatherDisplay:10.37,2014-12-20 06:40:00,
2014-12-20 00:45:00,37.5,33.4,30.22,NE,50,0.0,0.0,85,0.00,CLR,,0.00,WeatherDisplay:10.37,2014-12-20 06:45:00,
2014-12-20 00:50:00,37.3,33.2,30.22,NE,50,0.0,0.0,85,0.00,CLR,,0.00,WeatherDisplay:10.37,2014-12-20 06:50:00,
2014-12-20 00:55:00,37.0,33.2,30.22,NE,49,0.0,0.0,86,0.00,CLR,,0.00,WeatherDisplay:10.37,2014-12-20 06:55:00,
2014-12-20 01:00:00,36.8,33.0,30.22,NE,50,0.0,0.0,86,0.00,CLR,,0.00,WeatherDisplay:10.37,2014-12-20 07:00:00,
2014-12-20 01:05:00,36.6,33.1,30.22,NE,50,0.0,0.0,87,0.00,CLR,,0.00,WeatherDisplay:10.37,2014-12-20 07:05:00,
2014-12-20 01:10:00,36.3,32.8,30.22,NE,49,0.0,0.0,87,0.00,CLR,,0.00,WeatherDisplay:10.37,2014-12-20 07:10:00,
2014-12-20 01:15:00,36.1,32.6,30.21,NE,50,0.0,0.0,87,0.00,CLR,,0.00,WeatherDisplay:10.37,2014-12-20 07:15:00,
2014-12-20 01:21:00,35.8,32.3,30.21,NE,50,0.0,0.0,87,0.00,CLR,,0.00,WeatherDisplay:10.37,2014-12-20 07:21:00,
2014-12-20 01:26:00,35.6,32.1,30.21,NE,49,0.0,0.0,87,0.00,CLR,,0.00,WeatherDisplay:10.37,2014-12-20 07:26:00,
2014-12-20 01:31:00,35.4,31.9,30.22,NE,50,0.0,0.0,87,0.00,CLR,,0.00,WeatherDisplay:10.37,2014-12-20 07:31:00,
2014-12-20 01:36:00,35.3,32.1,30.22,NE,49,0.0,0.0,88,0.00,CLR,,0.00,WeatherDisplay:10.37,2014-12-20 07:36:00,
2014-12-20 01:41:00,35.1,31.9,30.22,NE,49,0.0,0.0,88,0.00,CLR,,0.00,WeatherDisplay:10.37,2014-12-20 07:41:00,
2014-12-20 01:46:00,34.9,31.7,30.22,NE,49,0.0,0.0,88,0.00,CLR,,0.00,WeatherDisplay:10.37,2014-12-20 07:46:00,
2014-12-20 01:51:00,34.6,31.4,30.23,NE,50,0.0,0.0,88,0.00,CLR,,0.00,WeatherDisplay:10.37,2014-12-20 07:51:00,
2014-12-20 01:56:00,34.4,31.5,30.23,NE,49,0.0,0.0,89,0.00,CLR,,0.00,WeatherDisplay:10.37,2014-12-20 07:56:00,
2014-12-20 02:01:00,34.4,31.5,30.23,NE,50,0.0,0.0,89,0.00,CLR,,0.00,WeatherDisplay:10.37,2014-12-20 08:01:00,
2014-12-20 02:06:00,34.3,31.4,30.23,NE,49,0.0,0.0,89,0.00,CLR,,0.00,WeatherDisplay:10.37,2014-12-20 08:06:00,
2014-12-20 02:11:00,34.1,31.2,30.23,NE,50,0.0,0.0,89,0.00,CLR,,0.00,WeatherDisplay:10.37,2014-12-20 08:11:00,
2014-12-20 02:16:00,33.9,31.0,30.23,NE,50,0.0,0.0,89,0.00,CLR,,0.00,WeatherDisplay:10.37,2014-12-20 08:16:00,
2014-12-20 02:21:00,33.8,30.9,30.23,NE,50,0.0,0.0,89,0.00,CLR,,0.00,WeatherDisplay:10.37,2014-12-20 08:21:00,
2014-12-20 02:26:00,33.6,30.7,30.23,NE,50,0.0,0.0,89,0.00,CLR,,0.00,WeatherDisplay:10.37,2014-12-20 08:26:00,
2014-12-20 02:31:00,33.5,30.6,30.23,NE,49,0.0,0.0,89,0.00,CLR,,0.00,WeatherDisplay:10.37,2014-12-20 08:31:00,
2014-12-20 02:36:00,33.4,30.8,30.23,NE,50,0.0,0.0,90,0.00,CLR,,0.00,WeatherDisplay:10.37,2014-12-20 08:36:00,
2014-12-20 02:41:00,33.3,30.7,30.23,NE,50,0.0,0.0,90,0.00,CLR,,0.00,WeatherDisplay:10.37,2014-12-20 08:41:00,
2014-12-20 02:46:00,33.1,30.5,30.23,NE,49,0.0,0.0,90,0.00,CLR,,0.00,WeatherDisplay:10.37,2014-12-20 08:46:00,
2014-12-20 02:51:00,33.0,30.4,30.23,NE,50,0.0,0.0,90,0.00,CLR,,0.00,WeatherDisplay:10.37,2014-12-20 08:51:00,
2014-12-20 02:56:00,33.0,30.4,30.23,NE,49,0.0,0.0,90,0.00,CLR,,0.00,WeatherDisplay:10.37,2014-12-20 08:56:00,
2014-12-20 03:01:00,33.1,30.5,30.23,NE,49,0.0,0.0,90,0.00,CLR,,0.00,WeatherDisplay:10.37,2014-12-20 09:01:00,
2014-12-20 03:06:00,33.1,30.8,30.23,NE,50,0.0,0.0,91,0.00,CLR,,0.00,WeatherDisplay:10.37,2014-12-20 09:06:00,
2014-12-20 03:11:00,33.2,30.9,30.22,NE,50,0.0,0.0,91,0.00,CLR,,0.00,WeatherDisplay:10.37,2014-12-20 09:11:00,
2014-12-20 03:16:00,33.3,31.0,30.23,NE,49,0.0,0.0,91,0.00,CLR,,0.00,WeatherDisplay:10.37,2014-12-20 09:16:00,
2014-12-20 03:21:00,33.5,31.2,30.22,NE,50,0.0,0.0,91,0.00,CLR,,0.00,WeatherDisplay:10.37,2014-12-20 09:21:00,
2014-12-20 03:26:00,33.7,31.4,30.23,NE,49,0.0,0.0,91,0.00,CLR,,0.00,WeatherDisplay:10.37,2014-12-20 09:26:00,
2014-12-20 03:31:00,33.8,31.5,30.22,NE,50,0.0,0.0,91,0.00,CLR,,0.00,WeatherDisplay:10.37,2014-12-20 09:31:00,
2014-12-20 03:36:00,33.8,31.5,30.22,NE,49,0.0,0.0,91,0.00,CLR,,0.00,WeatherDisplay:10.37,2014-12-20 09:36:00,
2014-12-20 03:41:00,33.9,31.8,30.22,NE,50,0.0,0.0,92,0.00,CLR,,0.00,WeatherDisplay:10.37,2014-12-20 09:41:00,
2014-12-20 03:46:00,33.9,31.8,30.22,NE,50,0.0,0.0,92,0.00,CLR,,0.00,WeatherDisplay:10.37,2014-12-20 09:46:00,
2014-12-20 03:51:00,33.9,31.8,30.22,NE,50,0.0,0.0,92,0.00,CLR,,0.00,WeatherDisplay:10.37,2014-12-20 09:51:00,
2014-12-20 03:56:00,33.9,31.8,30.22,NE,50,0.0,0.0,92,0.00,CLR,,0.00,WeatherDisplay:10.37,2014-12-20 09:56:00,
2014-12-20 04:01:00,33.9,31.8,30.23,NE,49,0.0,0.0,92,0.00,CLR,,0.00,WeatherDisplay:10.37,2014-12-20 10:01:00,
2014-12-20 04:06:00,34.0,31.9,30.23,NE,50,0.0,0.0,92,0.00,CLR,,0.00,WeatherDisplay:10.37,2014-12-20 10:06:00,
2014-12-20 04:11:00,34.1,32.0,30.23,NE,49,0.0,0.0,92,0.00,CLR,,0.00,WeatherDisplay:10.37,2014-12-20 10:11:00,
2014-12-20 04:16:00,34.1,32.0,30.23,NE,50,0.0,0.0,92,0.00,CLR,,0.00,WeatherDisplay:10.37,2014-12-20 10:16:00,
2014-12-20 04:21:00,34.1,32.0,30.23,NE,50,0.0,0.0,92,0.00,CLR,,0.00,WeatherDisplay:10.37,2014-12-20 10:21:00,
2014-12-20 04:26:00,34.2,32.1,30.23,NE,49,0.0,0.0,92,0.00,CLR,,0.00,WeatherDisplay:10.37,2014-12-20 10:26:00,
2014-12-20 04:31:00,34.2,32.1,30.23,NE,50,0.0,0.0,92,0.00,CLR,,0.00,WeatherDisplay:10.37,2014-12-20 10:31:00,
2014-12-20 04:36:00,34.3,32.2,30.23,NE,50,0.0,0.0,92,0.00,CLR,,0.00,WeatherDisplay:10.37,2014-12-20 10:36:00,
2014-12-20 04:41:00,34.4,32.3,30.23,NE,49,0.0,0.0,92,0.00,CLR,,0.00,WeatherDisplay:10.37,2014-12-20 10:41:00,
2014-12-20 04:46:00,34.4,32.3,30.23,NE,49,0.0,0.0,92,0.00,CLR,,0.00,WeatherDisplay:10.37,2014-12-20 10:46:00,
2014-12-20 04:51:00,34.4,32.3,30.23,NE,49,0.0,0.0,92,0.00,CLR,,0.00,WeatherDisplay:10.37,2014-12-20 10:51:00,
2014-12-20 04:56:00,34.4,32.3,30.23,NE,50,0.0,0.0,92,0.00,CLR,,0.00,WeatherDisplay:10.37,2014-12-20 10:56:00,
2014-12-20 05:01:00,34.5,32.7,30.23,NE,50,0.0,0.0,93,0.00,CLR,,0.00,WeatherDisplay:10.37,2014-12-20 11:01:00,
2014-12-20 05:06:00,34.7,32.9,30.23,NE,50,0.0,0.0,93,0.00,CLR,,0.00,WeatherDisplay:10.37,2014-12-20 11:06:00,
2014-12-20 05:11:00,34.9,33.1,30.23,NE,50,0.0,0.0,93,0.00,CLR,,0.00,WeatherDisplay:10.37,2014-12-20 11:11:00,
2014-12-20 05:16:00,35.0,33.2,30.23,NE,50,0.0,0.0,93,0.00,CLR,,0.00,WeatherDisplay:10.37,2014-12-20 11:16:00,
2014-12-20 05:21:00,35.2,33.4,30.23,NE,49,0.0,0.0,93,0.00,CLR,,0.00,WeatherDisplay:10.37,2014-12-20 11:21:00,
2014-12-20 05:26:00,35.3,33.5,30.23,NE,49,0.0,0.0,93,0.00,CLR,,0.00,WeatherDisplay:10.37,2014-12-20 11:26:00,
2014-12-20 05:31:00,35.5,33.7,30.24,NE,49,3.5,3.5,93,0.00,CLR,,0.00,WeatherDisplay:10.37,2014-12-20 11:31:00,
2014-12-20 05:36:00,35.8,34.0,30.24,NNE,23,1.2,0.0,93,0.00,CLR,,0.00,WeatherDisplay:10.37,2014-12-20 11:36:00,
2014-12-20 05:41:00,36.0,34.2,30.24,NNE,23,0.0,0.0,93,0.00,CLR,,0.00,WeatherDisplay:10.37,2014-12-20 11:41:00,
2014-12-20 05:46:00,36.1,34.3,30.24,NNE,26,2.3,2.3,93,0.00,CLR,,0.00,WeatherDisplay:10.37,2014-12-20 11:46:00,
2014-12-20 05:51:00,36.3,34.5,30.24,NE,49,2.3,2.3,93,0.00,CLR,,0.00,WeatherDisplay:10.37,2014-12-20 11:51:00,
2014-12-20 05:56:00,36.5,34.4,30.24,NNE,12,2.3,2.3,92,0.00,CLR,,0.00,WeatherDisplay:10.37,2014-12-20 11:56:00,
2014-12-20 06:01:00,36.7,34.6,30.24,ENE,64,3.5,3.5,92,0.00,CLR,,0.00,WeatherDisplay:10.37,2014-12-20 12:01:00,
2014-12-20 06:06:00,36.8,34.7,30.25,ENE,71,2.3,2.3,92,0.00,CLR,,0.00,WeatherDisplay:10.37,2014-12-20 12:06:00,
2014-12-20 06:11:00,36.9,34.8,30.25,NNE,30,0.0,0.0,92,0.00,CLR,,0.00,WeatherDisplay:10.37,2014-12-20 12:11:00,
2014-12-20 06:16:00,37.0,34.6,30.26,NNE,29,1.2,1.2,91,0.00,CLR,,0.00,WeatherDisplay:10.37,2014-12-20 12:16:00,
2014-12-20 06:21:00,37.1,34.7,30.26,North,11,0.0,0.0,91,0.00,CLR,,0.00,WeatherDisplay:10.37,2014-12-20 12:21:00,
2014-12-20 06:26:00,37.3,34.6,30.26,North,11,0.0,0.0,90,0.00,CLR,,0.00,WeatherDisplay:10.37,2014-12-20 12:26:00,
2014-12-20 06:31:00,37.4,34.7,30.26,NNE,33,0.0,0.0,90,0.00,CLR,,0.00,WeatherDisplay:10.37,2014-12-20 12:31:00,
2014-12-20 06:36:00,37.5,34.8,30.26,NNE,33,0.0,0.0,90,0.00,CLR,,0.00,WeatherDisplay:10.37,2014-12-20 12:36:00,
2014-12-20 06:41:00,37.5,34.6,30.26,NNE,33,0.0,0.0,89,0.00,CLR,,0.00,WeatherDisplay:10.37,2014-12-20 12:41:00,
2014-12-20 06:46:00,37.6,34.7,30.26,NNE,33,0.0,0.0,89,0.00,CLR,,0.00,WeatherDisplay:10.37,2014-12-20 12:46:00,
2014-12-20 06:51:00,37.6,34.7,30.27,NNE,33,1.0,1.0,89,0.00,CLR,,0.00,WeatherDisplay:10.37,2014-12-20 12:51:00,
2014-12-20 06:57:00,37.7,34.8,30.27,NNE,33,0.0,0.0,89,0.00,CLR,,0.00,WeatherDisplay:10.37,2014-12-20 12:57:00,
2014-12-20 07:02:00,37.7,34.8,30.27,NNE,33,0.0,0.0,89,0.00,CLR,,0.00,WeatherDisplay:10.37,2014-12-20 13:02:00,
2014-12-20 07:07:00,37.8,34.6,30.27,NE,34,1.2,1.2,88,0.00,CLR,,0.00,WeatherDisplay:10.37,2014-12-20 13:07:00,
2014-12-20 07:12:00,37.9,34.7,30.27,NE,42,2.3,2.3,88,0.00,CLR,,0.00,WeatherDisplay:10.37,2014-12-20 13:12:00,
2014-12-20 07:17:00,37.9,34.7,30.27,NE,45,2.3,0.0,88,0.00,CLR,,0.00,WeatherDisplay:10.37,2014-12-20 13:17:00,
2014-12-20 07:22:00,38.0,34.5,30.27,NE,50,2.3,2.3,87,0.00,CLR,,0.00,WeatherDisplay:10.37,2014-12-20 13:22:00,
2014-12-20 07:27:00,38.0,34.5,30.27,NE,50,0.0,0.0,87,0.00,CLR,,0.00,WeatherDisplay:10.37,2014-12-20 13:27:00,
2014-12-20 07:32:00,38.1,34.6,30.27,ENE,57,3.5,3.5,87,0.00,CLR,,0.00,WeatherDisplay:10.37,2014-12-20 13:32:00,
2014-12-20 07:37:00,38.1,34.6,30.27,NE,56,2.3,2.3,87,0.00,CLR,,0.00,WeatherDisplay:10.37,2014-12-20 13:37:00,
2014-12-20 07:42:00,38.2,34.4,30.27,ENE,65,2.3,2.3,86,0.00,CLR,,0.00,WeatherDisplay:10.37,2014-12-20 13:42:00,
2014-12-20 07:47:00,38.2,34.4,30.27,NE,49,2.3,2.3,86,0.00,CLR,,0.00,WeatherDisplay:10.37,2014-12-20 13:47:00,
2014-12-20 07:52:00,38.3,34.5,30.27,ENE,74,3.5,3.5,86,0.00,CLR,,0.00,WeatherDisplay:10.37,2014-12-20 13:52:00,
2014-12-20 07:57:00,38.3,34.5,30.27,NE,46,3.5,3.5,86,0.00,CLR,,0.00,WeatherDisplay:10.37,2014-12-20 13:57:00,
2014-12-20 08:02:00,38.4,34.3,30.27,ENE,59,2.3,2.3,85,0.00,CLR,,0.00,WeatherDisplay:10.37,2014-12-20 14:02:00,
2014-12-20 08:07:00,38.6,34.5,30.27,NE,50,5.0,5.0,85,0.00,CLR,,0.00,WeatherDisplay:10.37,2014-12-20 14:07:00,
2014-12-20 08:12:00,38.6,34.5,30.27,ENE,64,1.2,0.0,85,0.00,CLR,,0.00,WeatherDisplay:10.37,2014-12-20 14:12:00,
2014-12-20 08:17:00,38.8,34.4,30.27,ENE,69,3.5,3.5,84,0.00,CLR,,0.00,WeatherDisplay:10.37,2014-12-20 14:17:00,
2014-12-20 08:22:00,38.9,34.5,30.27,ENE,75,3.5,3.5,84,0.00,CLR,,0.00,WeatherDisplay:10.37,2014-12-20 14:22:00,
2014-12-20 08:27:00,39.1,34.7,30.27,NE,48,3.5,3.5,84,0.00,CLR,,0.00,WeatherDisplay:10.37,2014-12-20 14:27:00,
2014-12-20 08:32:00,39.2,34.5,30.27,ENE,78,5.8,5.8,83,0.00,CLR,,0.00,WeatherDisplay:10.37,2014-12-20 14:32:00,
2014-12-20 08:37:00,39.3,34.6,30.27,ENE,76,5.0,5.0,83,0.00,CLR,,0.00,WeatherDisplay:10.37,2014-12-20 14:37:00,
2014-12-20 08:42:00,39.6,34.9,30.27,East,79,3.5,3.5,83,0.00,CLR,,0.00,WeatherDisplay:10.37,2014-12-20 14:42:00,
2014-12-20 08:47:00,39.8,34.8,30.27,East,96,4.6,4.6,82,0.00,CLR,,0.00,WeatherDisplay:10.37,2014-12-20 14:47:00,
2014-12-20 08:52:00,40.0,34.6,30.28,East,81,3.0,3.0,81,0.00,CLR,,0.00,WeatherDisplay:10.37,2014-12-20 14:52:00,
2014-12-20 08:57:00,40.2,34.5,30.28,ENE,71,5.8,5.8,80,0.00,CLR,,0.00,WeatherDisplay:10.37,2014-12-20 14:57:00,
2014-12-20 09:02:00,40.3,34.6,30.28,NE,41,3.5,3.5,80,0.00,CLR,,0.00,WeatherDisplay:10.37,2014-12-20 15:02:00,
2014-12-20 09:07:00,40.5,34.8,30.27,ESE,123,2.3,2.3,80,0.00,CLR,,0.00,WeatherDisplay:10.37,2014-12-20 15:07:00,
2014-12-20 09:12:00,40.8,35.1,30.28,ENE,78,3.5,3.5,80,0.00,CLR,,0.00,WeatherDisplay:10.37,2014-12-20 15:12:00,
2014-12-20 09:17:00,40.9,35.2,30.28,ENE,59,2.3,2.3,80,0.00,CLR,,0.00,WeatherDisplay:10.37,2014-12-20 15:17:00,
2014-12-20 09:22:00,41.1,35.1,30.28,ENE,63,0.0,0.0,79,0.00,CLR,,0.00,WeatherDisplay:10.37,2014-12-20 15:22:00,
2014-12-20 09:27:00,41.4,35.4,30.28,ENE,61,4.0,4.0,79,0.00,CLR,,0.00,WeatherDisplay:10.37,2014-12-20 15:27:00,
2014-12-20 09:32:00,41.7,35.3,30.28,East,79,3.5,3.5,78,0.00,CLR,,0.00,WeatherDisplay:10.37,2014-12-20 15:32:00,
2014-12-20 09:37:00,42.1,35.7,30.28,East,80,0.0,0.0,78,0.00,CLR,,0.00,WeatherDisplay:10.37,2014-12-20 15:37:00,
2014-12-20 09:42:00,42.4,36.0,30.28,ENE,78,2.3,2.3,78,0.00,CLR,,0.00,WeatherDisplay:10.37,2014-12-20 15:42:00,
2014-12-20 09:47:00,42.7,36.0,30.28,NE,53,3.5,3.5,77,0.00,CLR,,0.00,WeatherDisplay:10.37,2014-12-20 15:47:00,
2014-12-20 09:52:00,42.8,35.8,30.28,NE,46,1.2,0.0,76,0.00,CLR,,0.00,WeatherDisplay:10.37,2014-12-20 15:52:00,
2014-12-20 09:57:00,43.1,36.0,30.28,ENE,71,2.3,0.0,76,0.00,CLR,,0.00,WeatherDisplay:10.37,2014-12-20 15:57:00,
2014-12-20 10:02:00,43.4,36.3,30.27,South,186,1.0,0.0,76,0.00,CLR,,0.00,WeatherDisplay:10.37,2014-12-20 16:02:00,
2014-12-20 10:07:00,44.0,36.6,30.27,South,188,2.0,2.0,75,0.00,CLR,,0.00,WeatherDisplay:10.37,2014-12-20 16:07:00,
2014-12-20 10:12:00,44.5,36.7,30.27,ENE,73,3.5,3.5,74,0.00,CLR,,0.00,WeatherDisplay:10.37,2014-12-20 16:12:00,
2014-12-20 10:17:00,44.8,36.7,30.27,ESE,119,2.3,2.3,73,0.00,CLR,,0.00,WeatherDisplay:10.37,2014-12-20 16:17:00,
2014-12-20 10:22:00,45.0,36.5,30.27,NE,46,3.0,3.0,72,0.00,CLR,,0.00,WeatherDisplay:10.37,2014-12-20 16:22:00,
2014-12-20 10:28:00,45.3,36.4,30.27,NE,52,3.5,3.5,71,0.00,CLR,,0.00,WeatherDisplay:10.37,2014-12-20 16:28:00,
2014-12-20 10:32:00,45.4,36.2,30.27,NE,51,3.5,3.5,70,0.00,CLR,,0.00,WeatherDisplay:10.37,2014-12-20 16:32:00,
2014-12-20 10:38:00,45.3,35.7,30.27,North,360,4.6,4.6,69,0.00,CLR,,0.00,WeatherDisplay:10.37,2014-12-20 16:38:00,
2014-12-20 10:43:00,45.4,36.2,30.27,NE,55,3.5,3.5,70,0.00,CLR,,0.00,WeatherDisplay:10.37,2014-12-20 16:43:00,
2014-12-20 10:48:00,45.8,36.6,30.27,NNE,26,3.5,3.5,70,0.00,CLR,,0.00,WeatherDisplay:10.37,2014-12-20 16:48:00,
2014-12-20 10:53:00,46.1,36.9,30.27,ENE,63,3.5,3.5,70,0.00,CLR,,0.00,WeatherDisplay:10.37,2014-12-20 16:53:00,
2014-12-20 10:58:00,46.6,37.0,30.27,NNE,17,3.0,3.0,69,0.00,CLR,,0.00,WeatherDisplay:10.37,2014-12-20 16:58:00,
2014-12-20 11:03:00,47.1,37.1,30.27,North,355,3.5,3.5,68,0.00,CLR,,0.00,WeatherDisplay:10.37,2014-12-20 17:03:00,
2014-12-20 11:08:00,47.5,36.7,30.27,ENE,59,3.5,3.5,66,0.00,CLR,,0.00,WeatherDisplay:10.37,2014-12-20 17:08:00,
2014-12-20 11:13:00,47.7,36.9,30.27,NNE,13,4.0,4.0,66,0.00,CLR,,0.00,WeatherDisplay:10.37,2014-12-20 17:13:00,
2014-12-20 11:18:00,47.7,36.5,30.26,NNE,22,3.5,3.5,65,0.00,CLR,,0.00,WeatherDisplay:10.37,2014-12-20 17:18:00,
2014-12-20 11:23:00,47.7,36.9,30.26,ENE,57,3.5,3.5,66,0.00,CLR,,0.00,WeatherDisplay:10.37,2014-12-20 17:23:00,
2014-12-20 11:28:00,47.7,36.9,30.26,ENE,59,0.0,0.0,66,0.00,CLR,,0.00,WeatherDisplay:10.37,2014-12-20 17:28:00,
2014-12-20 11:33:00,47.5,36.3,30.26,ENE,59,2.3,2.3,65,0.00,CLR,,0.00,WeatherDisplay:10.37,2014-12-20 17:33:00,
2014-12-20 11:38:00,47.6,36.8,30.26,ENE,71,2.3,0.0,66,0.00,CLR,,0.00,WeatherDisplay:10.37,2014-12-20 17:38:00,
2014-12-20 11:43:00,48.0,37.2,30.25,East,84,2.3,0.0,66,0.00,CLR,,0.00,WeatherDisplay:10.37,2014-12-20 17:43:00,
2014-12-20 11:48:00,48.2,37.0,30.25,East,96,3.5,0.0,65,0.00,CLR,,0.00,WeatherDisplay:10.37,2014-12-20 17:48:00,
2014-12-20 11:53:00,48.3,37.1,30.25,NE,55,3.0,3.0,65,0.00,CLR,,0.00,WeatherDisplay:10.37,2014-12-20 17:53:00,
2014-12-20 11:58:00,48.5,36.9,30.25,NE,45,4.0,4.0,64,0.00,CLR,,0.00,WeatherDisplay:10.37,2014-12-20 17:58:00,
2014-12-20 12:03:00,48.6,37.0,30.25,NE,55,3.5,3.5,64,0.00,CLR,,0.00,WeatherDisplay:10.37,2014-12-20 18:03:00,
2014-12-20 12:08:00,48.7,37.1,30.24,North,360,3.5,3.5,64,0.00,CLR,,0.00,WeatherDisplay:10.37,2014-12-20 18:08:00,
2014-12-20 12:13:00,48.8,37.2,30.24,ENE,76,3.5,3.5,64,0.00,CLR,,0.00,WeatherDisplay:10.37,2014-12-20 18:13:00,
2014-12-20 12:18:00,49.1,37.4,30.24,NNE,32,3.5,3.5,64,0.00,CLR,,0.00,WeatherDisplay:10.37,2014-12-20 18:18:00,
2014-12-20 12:23:00,49.2,37.1,30.24,NNW,342,3.5,3.5,63,0.00,CLR,,0.00,WeatherDisplay:10.37,2014-12-20 18:23:00,
2014-12-20 12:28:00,49.3,37.2,30.23,NW,323,4.6,4.6,63,0.00,CLR,,0.00,WeatherDisplay:10.37,2014-12-20 18:28:00,
2014-12-20 12:33:00,49.5,37.4,30.23,NNW,336,0.0,0.0,63,0.00,CLR,,0.00,WeatherDisplay:10.37,2014-12-20 18:33:00,
2014-12-20 12:38:00,49.5,37.4,30.23,West,275,2.3,2.3,63,0.00,CLR,,0.00,WeatherDisplay:10.37,2014-12-20 18:38:00,
2014-12-20 12:43:00,49.8,37.7,30.22,NE,39,2.0,2.0,63,0.00,CLR,,0.00,WeatherDisplay:10.37,2014-12-20 18:43:00,
2014-12-20 12:48:00,50.1,37.6,30.22,NW,315,4.6,4.6,62,0.00,CLR,,0.00,WeatherDisplay:10.37,2014-12-20 18:48:00,
2014-12-20 12:53:00,50.2,37.3,30.22,ENE,59,2.3,2.3,61,0.00,CLR,,0.00,WeatherDisplay:10.37,2014-12-20 18:53:00,
2014-12-20 12:58:00,50.3,37.4,30.22,ENE,72,3.0,3.0,61,0.00,CLR,,0.00,WeatherDisplay:10.37,2014-12-20 18:58:00,
2014-12-20 13:03:00,50.4,37.4,30.22,NW,318,2.3,0.0,61,0.00,CLR,,0.00,WeatherDisplay:10.37,2014-12-20 19:03:00,
2014-12-20 13:08:00,50.6,37.6,30.21,NNW,342,3.5,3.5,61,0.00,CLR,,0.00,WeatherDisplay:10.37,2014-12-20 19:08:00,
2014-12-20 13:13:00,50.8,37.8,30.21,NNW,331,5.8,5.8,61,0.00,CLR,,0.00,WeatherDisplay:10.37,2014-12-20 19:13:00,
2014-12-20 13:18:00,50.8,37.8,30.21,NNW,340,3.5,3.5,61,0.00,CLR,,0.00,WeatherDisplay:10.37,2014-12-20 19:18:00,
2014-12-20 13:23:00,50.6,37.2,30.21,NNE,30,5.8,5.8,60,0.00,CLR,,0.00,WeatherDisplay:10.37,2014-12-20 19:23:00,
2014-12-20 13:28:00,50.4,37.9,30.21,NW,307,3.5,3.5,62,0.00,CLR,,0.00,WeatherDisplay:10.37,2014-12-20 19:28:00,
2014-12-20 13:33:00,50.6,37.6,30.21,North,355,4.6,4.6,61,0.00,CLR,,0.00,WeatherDisplay:10.37,2014-12-20 19:33:00,
2014-12-20 13:38:00,50.8,37.8,30.20,NNE,30,3.5,3.5,61,0.00,CLR,,0.00,WeatherDisplay:10.37,2014-12-20 19:38:00,
2014-12-20 13:43:00,51.0,38.4,30.20,NW,318,2.3,2.3,62,0.00,CLR,,0.00,WeatherDisplay:10.37,2014-12-20 19:43:00,
2014-12-20 13:48:00,51.1,38.5,30.21,NNW,330,3.0,3.0,62,0.00,CLR,,0.00,WeatherDisplay:10.37,2014-12-20 19:48:00,
2014-12-20 13:53:00,51.1,38.1,30.21,NNW,340,5.8,5.8,61,0.00,CLR,,0.00,WeatherDisplay:10.37,2014-12-20 19:53:00,
2014-12-20 13:58:00,51.0,38.4,30.21,NNW,333,0.0,0.0,62,0.00,CLR,,0.00,WeatherDisplay:10.37,2014-12-20 19:58:00,
2014-12-20 14:03:00,51.1,38.1,30.21,NE,43,3.5,3.5,61,0.00,CLR,,0.00,WeatherDisplay:10.37,2014-12-20 20:03:00,
2014-12-20 14:08:00,50.9,37.9,30.21,North,350,3.5,3.5,61,0.00,CLR,,0.00,WeatherDisplay:10.37,2014-12-20 20:08:00,
2014-12-20 14:13:00,50.8,37.8,30.21,NNE,18,4.6,4.6,61,0.00,CLR,,0.00,WeatherDisplay:10.37,2014-12-20 20:13:00,
2014-12-20 14:18:00,50.7,37.7,30.21,NNW,337,0.0,0.0,61,0.00,CLR,,0.00,WeatherDisplay:10.37,2014-12-20 20:18:00,
2014-12-20 14:23:00,50.7,37.7,30.21,NNW,336,2.3,2.3,61,0.00,CLR,,0.00,WeatherDisplay:10.37,2014-12-20 20:23:00,
2014-12-20 14:28:00,50.6,37.6,30.21,NE,39,3.5,3.5,61,0.00,CLR,,0.00,WeatherDisplay:10.37,2014-12-20 20:28:00,
2014-12-20 14:34:00,50.5,37.5,30.21,ENE,57,4.0,4.0,61,0.00,CLR,,0.00,WeatherDisplay:10.37,2014-12-20 20:34:00,
2014-12-20 14:39:00,50.6,37.6,30.21,ENE,60,3.5,3.5,61,0.00,CLR,,0.00,WeatherDisplay:10.37,2014-12-20 20:39:00,
2014-12-20 14:44:00,50.6,37.6,30.21,East,82,3.5,3.5,61,0.00,CLR,,0.00,WeatherDisplay:10.37,2014-12-20 20:44:00,
2014-12-20 14:49:00,50.6,37.6,30.21,NNE,31,1.2,1.2,61,0.00,CLR,,0.00,WeatherDisplay:10.37,2014-12-20 20:49:00,
2014-12-20 14:54:00,50.6,38.1,30.21,NNW,327,2.3,2.3,62,0.00,CLR,,0.00,WeatherDisplay:10.37,2014-12-20 20:54:00,
2014-12-20 14:59:00,50.6,38.5,30.21,WNW,300,3.5,3.5,63,0.00,CLR,,0.00,WeatherDisplay:10.37,2014-12-20 20:59:00,
2014-12-20 15:04:00,50.5,38.0,30.21,NE,51,0.0,0.0,62,0.00,CLR,,0.00,WeatherDisplay:10.37,2014-12-20 21:04:00,
2014-12-20 15:09:00,50.4,37.9,30.21,NNE,28,3.5,0.0,62,0.00,CLR,,0.00,WeatherDisplay:10.37,2014-12-20 21:09:00,
2014-12-20 15:14:00,50.3,38.2,30.21,NNE,21,3.5,3.5,63,0.00,CLR,,0.00,WeatherDisplay:10.37,2014-12-20 21:14:00,
2014-12-20 15:19:00,50.3,38.2,30.21,NW,325,3.5,3.5,63,0.00,CLR,,0.00,WeatherDisplay:10.37,2014-12-20 21:19:00,
2014-12-20 15:24:00,50.3,38.2,30.21,NNW,333,4.6,4.6,63,0.00,CLR,,0.00,WeatherDisplay:10.37,2014-12-20 21:24:00,
2014-12-20 15:29:00,50.1,38.0,30.21,North,9,3.5,3.5,63,0.00,CLR,,0.00,WeatherDisplay:10.37,2014-12-20 21:29:00,
2014-12-20 15:34:00,50.0,37.9,30.21,NNE,28,3.0,3.0,63,0.00,CLR,,0.00,WeatherDisplay:10.37,2014-12-20 21:34:00,
2014-12-20 15:39:00,49.8,37.7,30.21,NNW,344,4.6,4.6,63,0.00,CLR,,0.00,WeatherDisplay:10.37,2014-12-20 21:39:00,
2014-12-20 15:44:00,49.6,37.5,30.21,ENE,61,3.5,3.5,63,0.00,CLR,,0.00,WeatherDisplay:10.37,2014-12-20 21:44:00,
2014-12-20 15:49:00,49.5,38.2,30.20,NNW,341,1.2,0.0,65,0.00,CLR,,0.00,WeatherDisplay:10.37,2014-12-20 21:49:00,
2014-12-20 15:54:00,49.5,37.8,30.20,NNE,16,3.5,3.5,64,0.00,CLR,,0.00,WeatherDisplay:10.37,2014-12-20 21:54:00,
2014-12-20 15:59:00,49.5,37.8,30.21,North,360,3.5,3.5,64,0.00,CLR,,0.00,WeatherDisplay:10.37,2014-12-20 21:59:00,
2014-12-20 16:04:00,49.3,37.6,30.20,NNE,13,3.5,3.5,64,0.00,CLR,,0.00,WeatherDisplay:10.37,2014-12-20 22:04:00,
2014-12-20 16:09:00,49.1,37.8,30.21,NNE,19,1.2,0.0,65,0.00,CLR,,0.00,WeatherDisplay:10.37,2014-12-20 22:09:00,
2014-12-20 16:14:00,48.9,37.6,30.21,NNE,20,0.0,0.0,65,0.00,CLR,,0.00,WeatherDisplay:10.37,2014-12-20 22:14:00,
2014-12-20 16:19:00,48.7,37.8,30.21,NNE,19,0.0,0.0,66,0.00,CLR,,0.00,WeatherDisplay:10.37,2014-12-20 22:19:00,
2014-12-20 16:24:00,48.5,37.7,30.21,NNE,21,1.2,0.0,66,0.00,CLR,,0.00,WeatherDisplay:10.37,2014-12-20 22:24:00,
2014-12-20 16:29:00,48.3,37.5,30.21,NNE,17,0.0,0.0,66,0.00,CLR,,0.00,WeatherDisplay:10.37,2014-12-20 22:29:00,
2014-12-20 16:34:00,48.1,37.7,30.22,NNE,17,0.0,0.0,67,0.00,CLR,,0.00,WeatherDisplay:10.37,2014-12-20 22:34:00,